Weather History for Andover, NJ

Change the Weather History Date:

Saturday, February 2, 2013

  Actual Average (KFWN) Record (KFWN)
Temperature  
Mean Temperature 20 °F -  
Max Temperature 24 °F 37 °F 64 °F (1989)
Min Temperature 15 °F 15 °F -12 °F (1971)
Degree Days  
Heating Degree Days 46    
Moisture  
Dew Point 10 °F    
Average Humidity 66    
Maximum Humidity 89    
Minimum Humidity 46    
Precipitation  
Precipitation 0.06 in - - ()
Sea Level Pressure  
Sea Level Pressure 30.20 in    
Wind  
Wind Speed 5 mph (SW)    
Max Wind Speed 10 mph    
Max Gust Speed 17 mph    
Averages and records for this station are not official NWS values.
T = Trace of Precipitation, MM = Missing Value Source: NWS Daily Summary

Daily Weather History Graph

Daily Weather History Graph

Search for Another Location

Airport:

Trip Planner

Search our weather history database for the weather conditions in past years. The results will help you decide how hot, cold, wet, or windy it might be!

Date:

Astronomy

Feb. 02, 2013 Rise Set
Actual Time 7:08 AM EST 5:17 PM EST
Civil Twilight 6:39 AM EST 5:46 PM EST
Nautical Twilight 6:06 AM EST 6:19 PM EST
Astronomical Twilight 5:34 AM EST 6:51 PM EST
Moon No Moon Rise 10:13 AM EST (2/2)
Length of Visible Light 11h 07m
Length of Day
10h 09m
Waning Gibbous, 60% of the Moon is Illuminated
Feb 2
Waning Gibbous
Feb 3
Last Quarter
Feb 10
New
Feb 17
First Quarter
Feb 25
Full

Hourly Weather History & Observations

Time (EST) Temp. Windchill Dew Point Humidity Pressure Visibility Wind Dir Wind Speed Gust Speed Precip Events Conditions
12:54 AM 19.9 °F 12.1 °F 6.1 °F 55% 30.26 in - Variable 5.8 mph - N/A   Unknown
1:54 AM 19.0 °F 12.3 °F 6.1 °F 57% 30.27 in - Variable 4.6 mph - N/A   Unknown
2:54 AM 18.0 °F 11.1 °F 5.0 °F 57% 30.29 in - Variable 4.6 mph - N/A   Unknown
3:54 AM 17.1 °F 8.7 °F 5.0 °F 59% 30.29 in - SW 5.8 mph - N/A   Unknown
4:54 AM 16.0 °F - 3.9 °F 59% 30.30 in - Calm Calm - N/A   Unknown
5:54 AM 16.0 °F - 3.9 °F 59% 30.29 in - Calm Calm - N/A   Unknown
6:54 AM 15.1 °F - 5.0 °F 64% 30.31 in - Calm Calm - N/A   Unknown
7:54 AM 15.1 °F 9.4 °F 6.1 °F 68% 30.31 in - South 3.5 mph - N/A   Unknown
8:54 AM 17.1 °F 8.7 °F 6.1 °F 62% 30.30 in - SW 5.8 mph - N/A   Unknown
9:54 AM 19.0 °F 12.3 °F 7.0 °F 59% 30.28 in - South 4.6 mph - N/A   Unknown
10:54 AM 21.9 °F 11.0 °F 5.0 °F 48% 30.25 in - WSW 10.4 mph - N/A   Unknown
11:00 AM - - - N/A% - - North - - N/A   Unknown
11:54 AM 24.1 °F 15.2 °F 6.1 °F 46% 30.21 in - SW 8.1 mph - N/A   Unknown
12:54 PM 23.0 °F 13.1 °F 5.0 °F 46% 30.19 in - WSW 9.2 mph - 0.02 in   Unknown
1:54 PM 23.0 °F 14.7 °F 6.1 °F 48% 30.16 in - Variable 6.9 mph 17.3 mph N/A   Unknown
2:54 PM 21.0 °F 9.9 °F 10.0 °F 63% 30.15 in - SW 10.4 mph 16.1 mph N/A   Unknown
3:54 PM 21.9 °F 11.7 °F 10.0 °F 60% 30.14 in - SW 9.2 mph - N/A   Unknown
4:54 PM 21.0 °F 12.4 °F 14.0 °F 74% 30.14 in - SW 6.9 mph - N/A   Unknown
5:54 PM 19.9 °F 14.9 °F 15.1 °F 81% 30.12 in - SSW 3.5 mph - N/A   Unknown
6:54 PM 19.9 °F 14.9 °F 16.0 °F 85% 30.12 in - SW 3.5 mph - 0.02 in   Unknown
7:54 PM 19.9 °F - 17.1 °F 89% 30.12 in - Calm Calm - 0.01 in   Unknown
8:54 PM 19.9 °F - 17.1 °F 89% 30.12 in - Calm Calm - 0.01 in   Unknown
9:54 PM 19.9 °F - 17.1 °F 89% 30.10 in - Calm Calm - N/A   Unknown
10:54 PM 21.0 °F - 18.0 °F 88% 30.08 in - Calm Calm - N/A   Unknown
11:54 PM 21.0 °F - 18.0 °F 88% 30.06 in - Calm Calm - N/A   Unknown